Home   Weather   Osnabrück   Past weeks

Flag for Germany Past Weather in Osnabrück, Lower Saxony, Germany — Yesterday and Last 2 Weeks

Now
28 °F

Clear.


Feels Like: 28 °F
Forecast: 25 / 35 °F
Wind: 1 mph from East

Location: Muenster / Osnabrueck

Current Time: Jan 19, 2017 at 3:25:15 am

Latest Report: Jan 19, 2017 at 2:50 am


Visibility: 10 mi

Pressure: 30.66 "Hg

Humidity: 80%

Dew Point: 23 °F

Location of OsnabrückLocation

Past Weather in Osnabrück — Graph

°F

Osnabrück Temperature Yesterday

Maximum temperature yesterday: 30 °F (at 12:50 pm)
Minimum temperature yesterday: 23 °F (at 6:50 am)
Average temperature yesterday: 27 °F

High & Low Weather Summary for the Past Weeks

 TemperatureHumidityPressure
High46 °F (Jan 11, 1:50 pm)100% (Jan 4, 2:20 am)30.74 "Hg (Jan 4, 2:20 am)
Low16 °F (Jan 6, 5:20 am)59% (Jan 5, 3:20 pm)28.94 "Hg (Jan 13, 2:20 am)
Average33 °F88%30.14 "Hg
* Reported Jan 4 2:20 am — Jan 19 2:20 am, Osnabrück, Weather by CustomWeather, © 2017

Note: Actual official high and low records may vary slightly from our data, if they occured in-between our weather recording intervals... More about our weather records

Advertising

Osnabrück Weather History for the Previous 24 Hours

Scroll right to see more
 ConditionsComfort  
Time TempWeatherWind HumidityBarometerVisibility
2:20 am
Thu, Jan 19
28 °FClear.2 mph80%30.66 "Hg10 mi
1:50 am28 °FClear.2 mph80%30.66 "Hg10 mi
12:50 am28 °FClear.2 mph80%30.66 "Hg10 mi
12:20 am27 °FClear.3 mph86%30.66 "Hg10 mi
11:50 pm
Wed, Jan 18
28 °FClear.2 mph80%30.69 "Hg10 mi
11:20 pm28 °FClear.2 mph80%30.69 "Hg10 mi
10:50 pm28 °FClear.1 mph80%30.69 "Hg10 mi
10:20 pm28 °FClear.2 mph80%30.69 "Hg10 mi
9:50 pm28 °FClear.2 mph86%30.69 "Hg10 mi
9:20 pm27 °FClear.3 mph93%30.69 "Hg10 mi
8:50 pm27 °FPassing clouds.3 mph86%30.69 "HgN/A
8:20 pm27 °FClear.2 mph86%30.69 "Hg10 mi
7:50 pm28 °FClear.2 mph80%30.69 "Hg10 mi
7:20 pm28 °FClear.No wind80%30.69 "Hg10 mi
6:50 pm28 °FClear.2 mph80%30.69 "Hg10 mi
6:20 pm28 °FClear.No wind80%30.69 "Hg10 mi
5:50 pm30 °FClear.1 mph75%30.69 "Hg10 mi
5:20 pm30 °FClear.No wind75%30.69 "Hg10 mi
4:50 pm30 °FSunny.1 mph75%30.69 "Hg10 mi
4:20 pm30 °FSunny.2 mph75%30.69 "Hg10 mi
3:50 pm30 °FSunny.2 mph75%30.69 "Hg10 mi
3:20 pm30 °FSunny.2 mph75%30.69 "Hg10 mi
2:50 pm30 °FSunny.2 mph75%30.69 "Hg10 mi
2:20 pm30 °FSunny.2 mph75%30.69 "Hg10 mi
1:50 pm30 °FSunny.5 mph75%30.69 "Hg10 mi
1:20 pm30 °FSunny.3 mph75%30.72 "Hg10 mi
12:50 pm30 °FPassing clouds.3 mph75%30.72 "HgN/A
12:20 pm28 °FSunny.3 mph74%30.72 "Hg10 mi
11:50 am28 °FSunny.3 mph80%30.72 "Hg10 mi
11:20 am27 °FPassing clouds.3 mph86%30.74 "HgN/A
10:50 am27 °FClear.3 mph86%30.74 "Hg6 mi
10:20 am25 °FClear.5 mph93%30.74 "Hg4 mi
9:50 am25 °FIce fog.2 mph93%30.74 "Hg1 mi
9:20 am23 °FIce fog.3 mph100%30.72 "Hg1 mi
8:50 am23 °FIce fog.3 mph100%30.72 "Hg1 mi
8:20 am23 °FIce fog.2 mph100%30.72 "Hg1 mi
7:50 am23 °FIce fog.1 mph100%30.69 "Hg1 mi
7:20 am23 °FIce fog.1 mph100%30.69 "Hg1 mi
6:50 am23 °FIce fog.No wind100%30.69 "Hg1 mi
6:20 am25 °FIce fog.2 mph93%30.69 "Hg2 mi
5:50 am25 °FIce fog.2 mph93%30.69 "Hg1 mi
5:20 am25 °FIce fog.3 mph93%30.72 "Hg2 mi
4:50 am25 °FIce fog.2 mph100%30.72 "Hg2 mi
4:20 am25 °FIce fog.2 mph100%30.72 "Hg2 mi
3:50 am25 °FIce fog.2 mph100%30.72 "Hg2 mi
3:20 am25 °FIce fog.3 mph93%30.72 "Hg2 mi
Weather by CustomWeather, © 2017

See weather overviewHow to use our weather pages